Weather History for KGCD - April, 2013

Change the Weather History Date:

Wednesday, April 10, 2013

  Actual Average (KBNO) Record (KBNO)
Temperature  
Mean Temperature 48 °F 42 °F  
Max Temperature 61 °F 56 °F 77 °F (1968)
Min Temperature 35 °F 28 °F 14 °F (1991)
Degree Days  
Heating Degree Days 17 23  
Month to date heating degree days 237  
Since 1 July heating degree days 6622  
Cooling Degree Days 0 0  
Month to date cooling degree days 0  
Year to date cooling degree days 0  
Moisture  
Dew Point 34 °F    
Average Humidity 63    
Maximum Humidity 84    
Minimum Humidity 35    
Precipitation  
Precipitation 0.02 in 0.03 in 0.52 in (1982)
Month to date precipitation 0.31  
Year to date precipitation 3.61  
Sea Level Pressure  
Sea Level Pressure 30.14 in    
Wind  
Wind Speed 10 mph (SW)    
Max Wind Speed 26 mph    
Max Gust Speed 37 mph    
Visibility 10 miles    
Events Rain    
T = Trace of Precipitation, MM = Missing Value Source: NWS Daily Summary

Daily Weather History Graph

Daily Weather History Graph

Search for Another Location

Airport or City:

Trip Planner

Search our weather history database for the weather conditions in past years. The results will help you decide how hot, cold, wet, or windy it might be!

Date:

Astronomy

Apr. 10, 2013 Rise Set
Actual Time 6:20 AM PDT 7:34 PM PDT
Civil Twilight 5:50 AM PDT 8:04 PM PDT
Nautical Twilight 5:14 AM PDT 8:40 PM PDT
Astronomical Twilight 4:36 AM PDT 9:19 PM PDT
Moon 6:17 AM PDT (4/10) 8:18 PM PDT (4/10)
Length of Visible Light 14h 14m
Length of Day
13h 14m
New Moon, 0% of the Moon is Illuminated
Apr 10
New Moon
Apr 18
First Quarter
Apr 25
Full
May 2
Last Quarter
May 9
New

Hourly Weather History & Observations

Time (PDT) Temp. Windchill Dew Point Humidity Pressure Visibility Wind Dir Wind Speed Gust Speed Precip Events Conditions
12:15 AM 37.4 °F 31.4 °F 31.1 °F 78% 30.26 in 10.0 mi ESE 8.1 mph - N/A   Clear
12:35 AM 37.4 °F 32.1 °F 31.1 °F 78% 30.26 in 10.0 mi East 6.9 mph - N/A   Scattered Clouds
12:55 AM 37.8 °F 31.8 °F 31.1 °F 77% 30.26 in 10.0 mi East 8.1 mph - N/A   Scattered Clouds
1:15 AM 37.9 °F 30.0 °F 31.1 °F 76% 30.25 in 10.0 mi ESE 12.7 mph - N/A   Clear
1:35 AM 39.2 °F 33.0 °F 30.9 °F 72% 30.25 in 10.0 mi ESE 9.2 mph - N/A   Mostly Cloudy
1:55 AM 38.5 °F 32.7 °F 30.2 °F 72% 30.24 in 10.0 mi East 8.1 mph - N/A   Scattered Clouds
2:15 AM 38.3 °F 31.4 °F 30.4 °F 73% 30.24 in 10.0 mi ESE 10.4 mph - N/A   Clear
2:35 AM 37.6 °F 31.6 °F 30.4 °F 75% 30.23 in 10.0 mi ESE 8.1 mph - N/A   Clear
2:55 AM 36.0 °F 30.3 °F 30.2 °F 80% 30.22 in 10.0 mi ESE 6.9 mph - N/A   Clear
3:15 AM 35.8 °F 30.1 °F 30.2 °F 80% 30.22 in 10.0 mi ESE 6.9 mph - N/A   Clear
3:35 AM 36.7 °F 32.0 °F 30.6 °F 78% 30.22 in 10.0 mi ESE 5.8 mph - N/A   Clear
3:55 AM 36.9 °F 30.7 °F 30.4 °F 77% 30.22 in 10.0 mi ESE 8.1 mph - N/A   Clear
4:15 AM 36.0 °F 29.6 °F 30.2 °F 80% 30.22 in 10.0 mi ESE 8.1 mph - N/A   Scattered Clouds
4:35 AM 36.1 °F 28.7 °F 30.7 °F 81% 30.21 in 10.0 mi SE 10.4 mph - N/A   Scattered Clouds
4:55 AM 37.0 °F 29.8 °F 30.6 °F 77% 30.21 in 10.0 mi ESE 10.4 mph - N/A   Mostly Cloudy
5:15 AM 36.9 °F 31.4 °F 30.7 °F 79% 30.21 in 10.0 mi ESE 6.9 mph - N/A   Mostly Cloudy
5:35 AM 38.1 °F 31.7 °F 30.9 °F 75% 30.21 in 10.0 mi ESE 9.2 mph - N/A   Overcast
5:55 AM 37.9 °F 33.5 °F 30.7 °F 75% 30.20 in 10.0 mi SSE 5.8 mph - N/A   Mostly Cloudy
6:15 AM 39.2 °F 34.2 °F 30.9 °F 72% 30.20 in 10.0 mi SE 6.9 mph - N/A   Mostly Cloudy
6:35 AM 39.6 °F 36.3 °F 30.6 °F 70% 30.20 in 10.0 mi ESE 4.6 mph - N/A   Scattered Clouds
6:55 AM 38.5 °F 32.7 °F 31.3 °F 75% 30.20 in 10.0 mi SE 8.1 mph - N/A   Clear
7:15 AM 40.5 °F 37.3 °F 31.6 °F 71% 30.20 in 10.0 mi SE 4.6 mph - N/A   Scattered Clouds
7:35 AM 41.0 °F 38.0 °F 32.0 °F 70% 30.20 in 10.0 mi SE 4.6 mph - N/A   Scattered Clouds
7:55 AM 42.1 °F 37.7 °F 32.4 °F 68% 30.20 in 10.0 mi ESE 6.9 mph - N/A   Overcast
8:15 AM 40.3 °F 35.5 °F 32.2 °F 73% 30.19 in 10.0 mi East 6.9 mph - N/A   Mostly Cloudy
8:35 AM 41.2 °F 37.3 °F 32.2 °F 70% 30.18 in 10.0 mi East 5.8 mph - N/A   Mostly Cloudy
8:55 AM 42.4 °F 37.5 °F 32.2 °F 67% 30.17 in 10.0 mi East 8.1 mph - N/A   Scattered Clouds
9:15 AM 44.1 °F 39.0 °F 32.4 °F 63% 30.17 in 10.0 mi East 9.2 mph - N/A   Scattered Clouds
9:35 AM 44.8 °F 40.4 °F 32.0 °F 61% 30.16 in 10.0 mi East 8.1 mph - N/A   Scattered Clouds
10:15 AM 48.2 °F - 32.5 °F 55% 30.14 in 10.0 mi East 4.6 mph - N/A   Clear
10:35 AM 49.8 °F - 34.2 °F 55% 30.13 in 10.0 mi Calm Calm - N/A   Clear
10:55 AM 50.4 °F - 34.2 °F 54% 30.13 in 10.0 mi East 4.6 mph - N/A   Clear
11:15 AM 50.7 °F - 34.3 °F 53% 30.13 in 10.0 mi Calm Calm - N/A   Clear
11:35 AM 55.9 °F - 39.6 °F 54% 30.11 in 10.0 mi SSW 11.5 mph 17.3 mph N/A   Clear
11:55 AM 58.6 °F - 40.8 °F 52% 30.09 in 10.0 mi SW 15.0 mph 19.6 mph N/A   Clear
12:15 PM 59.0 °F - 40.8 °F 51% 30.08 in 10.0 mi SSW 18.4 mph 23.0 mph N/A   Clear
12:35 PM 57.4 °F - 40.5 °F 53% 30.08 in 10.0 mi West 13.8 mph - N/A   Clear
12:55 PM 59.0 °F - 41.2 °F 52% 30.07 in 10.0 mi West 9.2 mph - N/A   Scattered Clouds
1:15 PM 57.9 °F - 40.6 °F 53% 30.08 in 10.0 mi West 12.7 mph 23.0 mph N/A   Mostly Cloudy
1:35 PM 61.2 °F - 41.2 °F 48% 30.05 in 10.0 mi WSW 13.8 mph 21.9 mph N/A   Mostly Cloudy
1:55 PM 58.8 °F - 40.5 °F 51% 30.04 in 10.0 mi West 8.1 mph 18.4 mph N/A   Mostly Cloudy
2:15 PM 58.1 °F - 41.2 °F 53% 30.04 in 10.0 mi WNW 8.1 mph - N/A Rain Light Rain
2:35 PM 53.1 °F - 47.1 °F 80% 30.06 in 7.0 mi WNW 16.1 mph 27.6 mph N/A Rain Light Rain
2:55 PM 53.1 °F - 47.7 °F 82% 30.07 in 10.0 mi West 8.1 mph - 0.01 in   Light Drizzle
3:15 PM 53.6 °F - 48.7 °F 84% 30.06 in 7.0 mi WSW 6.9 mph - 0.01 in Rain Light Rain
3:35 PM 54.5 °F - 48.7 °F 81% 30.05 in 10.0 mi SW 8.1 mph - 0.01 in   Overcast
3:55 PM 54.7 °F - 47.7 °F 77% 30.04 in 10.0 mi WSW 12.7 mph 16.1 mph 0.01 in Rain Light Rain
4:15 PM 56.5 °F - 42.8 °F 60% 30.05 in 10.0 mi WNW 18.4 mph 27.6 mph N/A   Overcast
4:35 PM 57.0 °F - 38.5 °F 50% 30.05 in 10.0 mi WNW 23.0 mph 28.8 mph N/A   Overcast
4:55 PM 57.0 °F - 35.4 °F 44% 30.04 in 10.0 mi WNW 26.5 mph 32.2 mph N/A   Scattered Clouds
5:15 PM 56.5 °F - 37.0 °F 48% 30.05 in 10.0 mi West 26.5 mph 36.8 mph N/A   Scattered Clouds
5:35 PM 57.0 °F - 31.3 °F 38% 30.06 in 10.0 mi WNW 23.0 mph 34.5 mph N/A   Scattered Clouds
5:55 PM 57.2 °F - 29.8 °F 35% 30.07 in 10.0 mi WNW 25.3 mph 33.4 mph N/A   Scattered Clouds
6:15 PM 55.6 °F - 28.9 °F 36% 30.07 in 10.0 mi WNW 20.7 mph 29.9 mph N/A   Scattered Clouds
6:35 PM 54.3 °F - 28.2 °F 37% 30.08 in 10.0 mi WNW 25.3 mph 32.2 mph N/A   Clear
6:55 PM 53.1 °F - 29.3 °F 40% 30.08 in 10.0 mi NW 20.7 mph 27.6 mph N/A   Clear
7:15 PM 51.1 °F - 29.3 °F 43% 30.09 in 10.0 mi NW 9.2 mph 23.0 mph N/A   Clear
7:35 PM 50.0 °F - 30.4 °F 47% 30.10 in 10.0 mi WNW 8.1 mph 21.9 mph N/A   Clear
7:55 PM 48.2 °F - 31.1 °F 52% 30.10 in 10.0 mi WNW 9.2 mph - N/A   Clear
8:15 PM 46.9 °F - 31.1 °F 54% 30.10 in 10.0 mi WNW 12.7 mph - N/A   Clear
8:35 PM 47.5 °F - 30.2 °F 51% 30.11 in 10.0 mi WNW 13.8 mph 17.3 mph N/A   Clear
8:55 PM 46.0 °F 41.0 °F 29.8 °F 53% 30.11 in 10.0 mi WNW 10.4 mph - N/A   Clear
9:15 PM 46.2 °F 41.2 °F 29.1 °F 51% 30.12 in 10.0 mi West 10.4 mph - N/A   Clear
9:35 PM 44.6 °F 38.8 °F 30.2 °F 57% 30.12 in 10.0 mi West 11.5 mph - N/A   Clear
9:55 PM 45.0 °F 38.5 °F 30.2 °F 56% 30.13 in 10.0 mi West 13.8 mph 20.7 mph N/A   Clear
10:15 PM 43.9 °F 38.3 °F 30.6 °F 59% 30.13 in 10.0 mi West 10.4 mph - N/A   Scattered Clouds
10:35 PM 41.9 °F 39.0 °F 30.2 °F 63% 30.14 in 10.0 mi West 4.6 mph - N/A   Scattered Clouds
10:55 PM 40.6 °F 36.0 °F 30.2 °F 66% 30.14 in 10.0 mi West 6.9 mph - N/A   Clear
11:15 PM 40.5 °F 35.8 °F 30.2 °F 67% 30.15 in 10.0 mi West 6.9 mph - N/A   Clear
11:35 PM 39.7 °F 35.6 °F 30.2 °F 69% 30.15 in 10.0 mi West 5.8 mph - N/A   Scattered Clouds
11:55 PM 39.2 °F 33.6 °F 30.2 °F 70% 30.15 in 10.0 mi West 8.1 mph - N/A   Scattered Clouds